HB9FVK-10 Weather Reports


Display with metric or nautical units.
time (UTC)temp
F
wind
direction
speed
MPH
gust
MPH
rain 1hr
in
rain 24hr
in
rain mn
in
humidity
%
barometer
mb
20260510234115 55 202 3.0 10.0 0.00 0.00 0.00 90 1012.4
20260510233113 56 174 3.0 4.0 0.00 0.00 0.00 90 1012.5
20260510232112 55 166 4.0 5.0 0.00 0.00 0.00 90 1012.6
20260510231111 55 162 4.0 5.0 0.00 0.00 0.00 91 1012.5
20260510230111 55 190 2.0 3.0 0.00 0.00 0.00 92 1012.7
20260510225109 55 194 5.0 6.0 0.00 0.00 0.00 92 1012.8
20260510224108 55 181 3.0 4.0 0.00 0.00 0.00 92 1012.6
20260510223106 56 119 3.0 5.0 0.00 0.00 0.00 91 1012.8
20260510222105 56 160 3.0 4.0 0.00 0.00 0.00 89 1013.2
20260510221104 56 169 3.0 4.0 0.00 0.00 0.00 90 1013.2
20260510215123 56 166 3.0 5.0 0.00 0.00 0.00 92 1013.1
20260510214100 56 154 3.0 4.0 0.00 0.00 0.00 92 1013.2
20260510213120 56 155 3.0 5.0 0.00 0.00 0.00 92 1013.3
20260510212058 56 141 4.0 6.0 0.00 0.00 0.00 92 1013.5
20260510211057 56 126 2.0 4.0 0.00 0.00 0.00 91 1013.6
20260510210056 56 139 2.0 3.0 0.00 0.00 0.00 90 1013.7
20260510205055 56 170 2.0 2.0 0.00 0.00 0.00 90 1013.7
20260510204114 56 179 2.0 2.0 0.00 0.00 0.00 90 1013.6
20260510203112 56 92 1.0 2.0 0.00 0.00 0.00 90 1013.5
20260510202111 57 244 0.0 2.0 0.00 0.00 0.00 89 1013.6
20260510201050 57 128 1.0 2.0 0.00 0.00 0.00 89 1013.4
20260510200050 58 221 0.0 2.0 0.00 0.00 0.00 88 1013.5
20260510195048 58 137 1.0 2.0 0.00 0.00 0.00 87 1013.5
20260510194046 58 152 2.0 2.0 0.00 0.00 0.00 86 1013.5
20260510193045 58 168 1.0 2.0 0.00 0.00 0.00 86 1013.6
20260510192044 58 168 2.0 3.0 0.00 0.00 0.00 84 1013.6
20260510191043 59 174 1.0 2.0 0.00 0.00 0.00 85 1013.7
20260510190042 59 183 3.0 4.0 0.00 0.00 0.00 83 1013.5
20260510185040 60 149 2.0 3.0 0.00 0.00 0.00 82 1013.4
20260510184059 60 133 2.0 3.0 0.00 0.00 0.00 82 1013.4
20260510183059 60 168 2.0 4.0 0.00 0.00 0.00 81 1013.5
20260510182037 60 176 3.0 3.0 0.00 0.00 0.00 80 1013.4
20260510181036 61 219 4.0 5.0 0.00 0.00 0.00 81 1013.4
20260510180035 61 199 2.0 3.0 0.00 0.00 0.00 81 1013.4
20260510175033 61 167 1.0 2.0 0.00 0.00 0.00 81 1013.3
20260510174032 61 219 2.0 3.0 0.00 0.00 0.00 81 1013.5
20260510173031 61 196 3.0 4.0 0.00 0.00 0.00 81 1013.5
20260510172030 61 214 4.0 6.0 0.00 0.00 0.00 81 1013.8
20260510171029 61 192 3.0 4.0 0.00 0.00 0.00 82 1013.6
20260510170029 61 217 3.0 6.0 0.00 0.00 0.00 83 1013.6
20260510165026 61 170 2.0 4.0 0.00 0.00 0.00 83 1013.6
20260510164046 61 228 1.0 2.0 0.00 0.00 0.00 83 1013.7
20260510163024 61 206 2.0 3.0 0.00 0.00 0.00 83 1013.9
20260510162023 61 184 1.0 3.0 0.00 0.00 0.00 82 1013.9
20260510161022 61 189 1.0 2.0 0.00 0.00 0.00 83 1014.0
20260510160021 61 254 1.0 2.0 0.00 0.00 0.00 84 1014.0
20260510155019 61 293 3.0 6.0 0.00 0.00 0.00 83 1014.1
20260510154038 61 297 6.0 11.0 0.00 0.00 0.00 83 1014.2
20260510153017 61 280 3.0 7.0 0.00 0.00 0.00 83 1014.2
20260510152036 60 298 4.0 13.0 0.00 0.00 0.00 82 1014.3
20260510151115 61 211 2.0 3.0 0.00 0.00 0.00 83 1014.3
20260510150114 61 268 4.0 9.0 0.00 0.00 0.00 82 1014.3
20260510145112 61 296 2.0 7.0 0.00 0.00 0.00 81 1014.1
20260510144152 62 302 5.0 11.0 0.00 0.00 0.00 80 1014.0
20260510143114 62 275 4.0 8.0 0.00 0.00 0.00 75 1013.6
20260510142148 66 299 7.0 17.0 0.00 0.00 0.00 69 1013.5
20260510141148 68 307 2.0 5.0 0.00 0.00 0.00 58 1013.3
20260510140106 68 355 2.0 4.0 0.00 0.00 0.00 58 1013.3
20260510135105 68 335 3.0 5.0 0.00 0.00 0.00 57 1013.2
20260510134103 68 350 3.0 4.0 0.00 0.00 0.00 57 1013.4
20260510133102 68 346 1.0 3.0 0.00 0.00 0.00 57 1013.4
20260510132101 68 53 2.0 5.0 0.00 0.00 0.00 56 1013.5
20260510131100 68 42 3.0 5.0 0.00 0.00 0.00 55 1013.4
20260510130058 68 41 3.0 5.0 0.00 0.00 0.00 55 1013.4
20260510125107 69 356 5.0 11.0 0.00 0.00 0.00 56 1013.4
20260510124107 69 350 3.0 8.0 0.00 0.00 0.00 55 1013.4
20260510123055 69 5 4.0 8.0 0.00 0.00 0.00 55 1013.5
20260510122054 68 2 3.0 6.0 0.00 0.00 0.00 55 1013.6
20260510121053 68 354 3.0 8.0 0.00 0.00 0.00 54 1013.7
20260510120051 68 20 6.0 11.0 0.00 0.00 0.00 54 1013.8
20260510115051 67 7 3.0 6.0 0.00 0.00 0.00 54 1013.9
20260510114050 67 346 3.0 5.0 0.00 0.00 0.00 54 1014.0
20260510113048 67 47 5.0 10.0 0.00 0.00 0.00 55 1014.0
20260510112047 67 42 4.0 7.0 0.00 0.00 0.00 57 1014.1
20260510111106 67 26 5.0 8.0 0.00 0.00 0.00 56 1014.2
20260510110044 68 44 3.0 5.0 0.00 0.00 0.00 56 1014.3
20260510105044 67 10 3.0 4.0 0.00 0.00 0.00 57 1014.4
20260510104042 67 244 2.0 4.0 0.00 0.00 0.00 55 1014.4
20260510103041 67 339 3.0 5.0 0.00 0.00 0.00 55 1014.5
20260510102040 66 30 3.0 7.0 0.00 0.00 0.00 57 1014.4
20260510101039 66 297 2.0 5.0 0.00 0.00 0.00 57 1014.6
20260510100037 67 14 7.0 11.0 0.00 0.00 0.00 56 1014.6
20260510095037 66 271 2.0 4.0 0.00 0.00 0.00 55 1014.8
20260510094035 66 323 2.0 5.0 0.00 0.00 0.00 57 1014.9
20260510093054 66 305 3.0 6.0 0.00 0.00 0.00 55 1015.0
20260510092033 66 282 3.0 5.0 0.00 0.00 0.00 54 1015.0
20260510091031 66 0 3.0 4.0 0.00 0.00 0.00 55 1015.1
20260510090031 65 343 3.0 4.0 0.00 0.00 0.00 58 1015.1
20260510085030 64 354 3.0 4.0 0.00 0.00 0.00 57 1015.2
20260510084028 64 0 1.0 3.0 0.00 0.00 0.00 57 1015.2
20260510083027 64 58 3.0 4.0 0.00 0.00 0.00 57 1015.4
20260510082025 64 9 4.0 7.0 0.00 0.00 0.00 56 1015.4
20260510081025 63 28 3.0 6.0 0.00 0.00 0.00 57 1015.3
20260510080023 64 24 3.0 5.0 0.00 0.00 0.00 57 1015.3
20260510075023 64 15 3.0 6.0 0.00 0.00 0.00 56 1015.4
20260510074102 64 354 2.0 4.0 0.00 0.00 0.00 56 1015.4
20260510073020 63 123 1.0 2.0 0.00 0.00 0.00 56 1015.4
20260510072019 62 334 1.0 2.0 0.00 0.00 0.00 58 1015.2
20260510071018 62 107 1.0 3.0 0.00 0.00 0.00 61 1015.3
20260510070016 62 97 2.0 5.0 0.00 0.00 0.00 63 1015.1
20260510065115 63 38 1.0 2.0 0.00 0.00 0.00 60 1015.2
20260510064115 63 54 2.0 3.0 0.00 0.00 0.00 60 1015.2
20260510063113 63 123 2.0 3.0 0.00 0.00 0.00 62 1015.3
20260510062112 60 124 2.0 3.0 0.00 0.00 0.00 70 1015.2
20260510061112 60 106 3.0 5.0 0.00 0.00 0.00 71 1015.2
20260510060110 60 104 2.0 4.0 0.00 0.00 0.00 68 1015.4
20260510055111 58 167 2.0 4.0 0.00 0.00 0.00 75 1015.4
20260510054109 57 167 3.0 5.0 0.00 0.00 0.00 76 1015.4
20260510053106 56 135 3.0 4.0 0.00 0.00 0.00 78 1015.3
20260510052105 55 145 3.0 5.0 0.00 0.00 0.00 81 1015.4
20260510051104 55 139 4.0 6.0 0.00 0.00 0.00 82 1015.4
20260510050123 54 129 5.0 7.0 0.00 0.00 0.00 82 1015.5
20260510045102 54 144 4.0 5.0 0.00 0.00 0.00 84 1015.4
20260510044101 53 153 1.0 5.0 0.00 0.00 0.00 84 1015.3
20260510043059 53 30 2.0 4.0 0.00 0.00 0.00 84 1015.4
20260510042058 53 81 2.0 4.0 0.00 0.00 0.00 84 1015.5
20260510041057 53 120 3.0 5.0 0.00 0.00 0.00 84 1015.6
20260510040056 53 126 2.0 5.0 0.00 0.00 0.00 84 1015.5
20260510035055 53 182 4.0 5.0 0.00 0.00 0.00 84 1015.7
20260510034134 53 133 3.0 6.0 0.00 0.00 0.00 85 1015.7
20260510033052 53 119 2.0 5.0 0.00 0.00 0.00 84 1015.7
20260510032051 53 129 2.0 3.0 0.00 0.00 0.00 84 1015.8
20260510031050 53 131 2.0 4.0 0.00 0.00 0.00 83 1015.8
20260510030049 54 134 3.0 4.0 0.00 0.00 0.00 82 1016.0
20260510025047 54 122 2.0 4.0 0.00 0.00 0.00 83 1016.0
20260510024108 54 154 3.0 5.0 0.00 0.00 0.00 82 1016.1
20260510023046 54 147 3.0 4.0 0.00 0.00 0.00 81 1016.1
20260510022044 54 127 2.0 2.0 0.00 0.00 0.00 81 1016.2
20260510021044 54 115 1.0 2.0 0.00 0.00 0.00 81 1016.2
20260510020042 54 184 1.0 3.0 0.00 0.00 0.00 80 1016.3
20260510015101 54 137 3.0 5.0 0.00 0.00 0.00 81 1016.3
20260510014040 54 111 2.0 5.0 0.00 0.00 0.00 80 1016.4
20260510013038 54 129 2.0 4.0 0.00 0.00 0.00 79 1016.3
20260510012037 55 118 2.0 5.0 0.00 0.00 0.00 77 1016.2
20260510011037 56 125 2.0 4.0 0.00 0.00 0.00 75 1016.3
20260510010035 55 153 4.0 7.0 0.00 0.00 0.00 76 1016.3
20260510005034 55 131 5.0 7.0 0.00 0.00 0.00 78 1016.3
20260510004033 56 148 4.0 5.0 0.00 0.00 0.00 76 1016.5
20260510003032 55 157 4.0 6.0 0.00 0.00 0.00 75 1016.5
20260510002031 55 153 3.0 5.0 0.00 0.00 0.00 77 1016.6
20260510001029 55 151 5.0 7.0 0.00 0.00 0.00 77 1016.6
20260510000028 55 153 3.0 4.0 0.00 0.00 0.00 78 1016.7